Location: Newark
(47.3000°N, 8.1000°E)
Time: 09:52:10
(UTC+00:00)

N. Korean satellite - Visible Passes

Search period start: 19 November 2019 00:00
Search period end: 29 November 2019 00:00
Orbit: 456 x 506 km, 97.2° (Epoch: 18 November)

Date Brightness Start Highest point End Pass type
(mag) Time Alt. Az. Time Alt. Az. Time Alt. Az.
19 Nov 9.4 04:35:39 10° NE 04:38:32 21° E 04:41:22 10° SE visible
19 Nov 7.6 16:46:30 10° S 16:50:03 51° W 16:53:41 10° NNW visible
20 Nov 10.2 04:11:47 10° ENE 04:12:54 11° E 04:14:01 10° ESE visible
20 Nov 6.6 05:43:01 10° N 05:46:43 61° WNW 05:50:19 10° SSW visible
20 Nov 6.6 16:21:00 10° SSE 16:24:38 78° ENE 16:28:22 10° N visible
21 Nov 7.1 05:17:37 10° NNE 05:21:20 65° ESE 05:24:57 10° S visible
21 Nov 9.8 17:30:25 10° SW 17:32:54 17° W 17:35:24 10° NW visible
22 Nov 8.6 04:52:29 10° NNE 04:55:51 32° E 04:59:09 10° SSE visible
22 Nov 8.7 17:04:00 10° SSW 17:07:19 32° W 17:10:42 10° NNW visible
23 Nov 9.7 04:27:47 10° NE 04:30:16 17° E 04:32:44 10° SE visible
23 Nov 7.1 06:00:23 10° N 06:03:50 38° WNW 06:07:13 10° SW visible
23 Nov 7.1 16:38:12 10° S 16:41:51 65° W 16:45:33 10° NNW visible
24 Nov 6.5 05:34:49 10° N 05:38:31 77° WNW 05:42:08 10° SSW visible
24 Nov 6.6 16:12:49 10° SSE 16:16:27 62° ENE 16:20:09 10° N visible
24 Nov 10.2 17:49:09 10° WSW 17:50:16 11° W 17:51:23 10° WNW visible
25 Nov 7.5 05:09:29 10° NNE 05:13:06 51° E 05:16:38 10° S visible
25 Nov 9.5 17:21:46 10° SW 17:24:37 21° W 17:27:30 10° NW visible
26 Nov 9.0 04:44:26 10° NE 04:47:35 26° E 04:50:39 10° SSE visible
26 Nov 8.2 16:55:35 10° SSW 16:59:04 39° W 17:02:36 10° NNW visible
27 Nov 10.0 04:20:00 10° ENE 04:21:58 14° E 04:23:54 10° ESE visible
27 Nov 6.8 05:52:06 10° N 05:55:38 46° WNW 05:59:07 10° SSW visible
27 Nov 6.8 16:29:55 10° S 16:33:37 81° WSW 16:37:21 10° NNW visible
28 Nov 6.6 05:26:35 10° NNE 05:30:16 85° E 05:33:53 10° SSW visible
28 Nov 10.0 17:39:58 10° WSW 17:41:55 14° W 17:43:54 10° WNW visible
